Wetbulb
35.15 35.60 35.72 35.43 35.12 35.54 35.29 36.18 37.15 37.60 37.78 37.58 37.66 37.62 38.06 38.08 38.83 38.22 37.73 37.43 36.66 36.81 36.91 36.56 36.49 37.03 36.49 36.37 35.82 36.00 35.27 36.77 37.55 30.65 34.43 35.16 33.62 31.62 29.75 29.45 30.60 29.37 30.37
33.71 34.29 34.35 34.48 33.86 33.10 32.89 33.35 34.75 34.87 36.27 36.26 36.78 36.04 35.98 36.66 37.40 36.97 35.92 35.12 35.84 35.23 35.54 34.88 34.98 34.40 34.89 35.37 34.81 33.96 33.59 34.03 34.65 28.22 30.69 31.40 31.41 31.41 28.84 27.32 27.57 28.93 29.67
32.61 32.85 33.36 33.07 32.73 32.09 31.71 31.76 32.45 32.70 33.22 34.95 34.92 34.61 34.75 35.07 35.33 35.55 35.71 34.90 35.06 35.33 35.18 34.67 33.96 34.12 32.88 34.03 33.69 32.94 32.74 29.60 32.77 29.94 27.24 29.52 29.33 30.14 28.58 27.68 27.71 27.31 28.10
32.83 31.60 31.47 31.72 31.83 31.20 30.77 30.85 31.19 31.73 31.75 31.83 32.62 33.61 33.91 33.92 33.35 33.76 33.70 33.46 33.94 34.39 34.42 34.54 33.68 33.25 32.72 33.02 32.30 32.33 31.76 30.79 30.59 30.20 26.54 26.61 26.40 27.05 26.78 25.09 24.46 26.95 26.96
31.72 30.98 30.48 30.80 30.79 30.33 29.36 28.95 29.87 30.79 31.02 31.30 31.10 31.19 32.05 32.67 32.00 32.36 32.47 32.07 31.76 32.32 33.46 32.92 33.67 33.47 33.95 34.19 32.46 32.31 31.69 30.87 29.73 29.00 26.71 25.05 24.60 23.23 23.15 25.43 25.54 26.42 27.20
29.97 29.20 29.34 28.92 28.90 28.44 27.99 27.21 27.44 29.01 29.89 29.61 29.15 29.28 29.61 31.00 33.19 34.43 33.42 31.61 31.43 30.80 30.69 32.49 32.32 31.81 32.69 35.03 35.98 36.21 33.83 31.24 29.45 28.92 27.92 25.93 25.13 25.23 25.09 24.84 25.25 25.02 22.97
28.44 28.42 28.10 27.63 27.25 27.20 26.69 25.70 25.15 25.48 27.74 27.04 27.44 28.49 28.37 29.78 32.37 33.39 34.21 32.26 31.51 31.11 30.56 30.48 30.74 30.84 30.91 30.99 34.20 35.67 35.41 36.15 35.45 31.14 29.16 27.77 26.23 25.98 25.68 25.66 25.37 25.40 26.05
27.30 26.99 27.48 27.08 25.89 26.06 25.15 23.87 23.63 24.36 24.71 24.88 25.53 26.98 27.63 28.21 31.33 32.32 33.11 32.14 31.37 31.49 31.25 30.80 30.25 30.62 30.73 29.53 29.43 30.95 31.42 31.36 33.07 32.37 31.58 30.46 29.44 28.31 28.03 27.74 26.79 27.11 25.90
25.30 25.46 25.73 25.69 24.23 24.12 22.50 21.84 22.42 22.50 22.43 22.46 23.90 24.03 24.32 26.11 29.88 30.87 31.03 30.98 30.62 30.63 31.12 31.35 31.01 30.41 32.44 33.58 28.78 28.93 29.35 29.89 32.71 34.90 32.71 33.08 32.31 31.66 30.11 27.23 24.31 23.28 21.96
23.78 23.97 24.14 23.61 22.40 21.70 22.05 21.20 21.72 21.24 20.66 21.51 21.19 21.69 22.07 22.41 27.00 29.24 29.77 29.45 29.48 29.65 30.65 30.86 31.51 31.34 32.85 33.94 29.33 28.40 27.37 28.28 27.46 28.59 27.39 29.65 30.65 30.44 31.37 27.82 26.06 22.72 21.30
21.33 20.72 19.93 19.98 19.29 19.29 18.97 19.42 18.90 18.03 17.92 16.83 17.23 18.19 18.99 20.68 22.76 27.82 29.61 28.16 28.49 28.85 29.26 30.08 31.02 33.23 33.56 33.75 33.14 28.84 28.37 30.09 28.88 27.14 24.82 25.74 26.33 26.62 26.64 26.57 26.45 25.24 21.38
15.51 13.97 13.17 12.69 13.30 14.11 12.98 13.67 14.06 13.84 13.03 12.96 13.57 14.96 17.68 19.69 23.00 26.12 28.66 29.82 30.31 28.40 28.65 30.00 30.97 33.40 32.89 33.52 32.69 31.50 32.02 31.31 27.09 25.19 23.16 23.74 24.02 23.81 24.89 25.47 25.29 24.49 24.70
9.25 7.10 6.97 7.70 8.10 8.65 8.22 8.39 8.96 10.03 10.23 10.65 11.55 11.89 13.71 17.88 20.62 25.16 27.84 29.30 30.07 28.37 29.14 30.82 32.20 32.93 32.97 31.63 32.85 32.50 30.19 28.79 24.64 23.06 21.82 23.15 24.09 24.61 25.13 22.95 22.07 21.50 21.37
4.32 4.37 5.16 4.61 5.00 5.69 6.80 7.13 6.30 6.33 6.21 7.47 7.73 8.65 11.13 13.74 16.57 20.27 23.57 26.13 27.25 27.28 28.42 28.78 30.95 32.38 31.68 29.35 27.80 30.45 28.66 28.13 24.50 23.17 22.83 24.36 24.22 22.67 19.45 19.41 17.39 17.77 16.03
3.48 3.64 3.78 4.47 4.36 4.73 5.76 5.55 5.60 6.75 7.24 5.49 6.29 7.64 7.65 8.47 12.37 18.33 21.48 23.18 25.73 25.72 25.42 27.03 28.07 28.75 25.98 25.18 25.75 26.63 27.52 27.06 24.30 24.18 24.26 22.59 20.13 18.63 17.34 17.96 16.75 15.20 13.69
1.49 2.01 2.55 2.48 2.99 3.82 3.85 4.19 10.01 11.82 13.39 14.33 15.24 13.86 12.40 16.52 18.43 19.73 21.26 22.53 24.19 26.46 26.12 23.48 25.36 26.13 23.36 23.15 24.27 24.30 26.16 25.63 24.05 23.63 22.86 19.62 17.56 17.07 15.57 16.06 15.93 14.16 13.22
-0.10 0.53 1.16 1.63 1.89 1.74 2.43 2.46 1.36 5.92 11.65 12.89 13.77 14.62 15.38 16.03 17.63 19.18 20.65 22.17 24.63 25.36 24.51 23.82 24.05 24.26 22.96 23.66 24.75 24.39 24.41 22.29 22.61 20.90 18.72 17.54 16.63 16.31 14.29 13.81 13.95 13.19 12.61
0.54 0.91 1.49 2.26 2.74 3.18 3.35 3.34 3.57 2.57 1.80 3.13 9.10 11.02 13.03 14.92 16.28 18.53 20.67 22.10 19.90 22.17 25.00 23.83 23.97 23.82 23.55 23.72 24.71 24.68 22.69 20.21 19.53 18.06 17.01 16.71 15.92 14.67 13.38 12.53 12.34 11.13 11.09
0.65 0.81 2.06 3.54 4.30 4.60 4.91 4.97 4.97 4.69 4.28 4.36 5.71 8.85 10.24 14.05 16.47 18.81 22.00 21.12 21.16 22.99 24.00 23.61 25.03 24.48 23.69 24.58 23.12 21.23 20.07 18.10 17.99 16.59 15.87 15.16 14.81 13.66 12.22 12.02 11.45 11.12 10.71
1.95 1.97 3.23 4.09 4.74 5.01 5.56 5.73 6.04 6.00 5.75 5.45 5.62 6.24 8.35 9.72 10.64 16.41 18.12 19.11 18.93 20.87 24.15 24.44 24.22 24.57 24.49 22.13 19.60 18.62 17.12 16.97 15.80 14.85 13.59 12.83 12.41 12.37 10.70 10.24 9.46 8.29 8.34
2.27 3.30 3.53 3.78 4.06 4.84 6.00 6.99 8.89 10.26 8.65 7.06 6.72 8.80 15.12 14.31 16.33 16.61 18.23 19.67 22.64 24.88 24.84 24.72 23.41 21.63 20.57 19.80 17.71 16.75 15.67 14.39 13.70 12.10 10.64 10.41 10.91 9.59 9.98 10.39 9.51 8.81 8.28
2.13 2.06 2.83 2.76 4.52 5.55 6.16 7.64 8.23 8.39 9.16 9.31 10.07 12.68 17.93 14.84 15.62 15.99 15.69 16.55 19.87 20.70 20.46 19.47 19.49 19.73 19.03 16.99 16.05 14.51 12.60 10.60 9.54 9.17 8.49 8.47 9.11 8.74 8.94 8.33 7.70 7.09 6.74
1.30 0.97 1.03 2.18 3.83 4.47 5.03 5.81 6.19 6.46 6.61 7.06 7.12 6.80 7.01 6.69 7.36 8.20 8.88 9.75 10.29 10.48 12.81 13.79 12.55 11.75 12.76 13.39 13.83 12.40 10.04 8.96 9.37 9.25 7.44 7.19 6.90 6.63 7.21 6.19 6.67 6.15 5.92
0.39 -0.03 0.01 0.90 1.78 2.30 3.35 3.70 4.21 4.29 4.50 4.41 4.53 4.73 4.73 5.06 5.32 5.60 6.15 7.14 7.44 7.44 7.63 7.82 8.68 9.15 9.63 10.34 10.86 10.90 10.25 9.70 9.75 9.01 8.29 7.10 5.99 6.26 6.50 5.90 5.41 5.69 5.98
-0.16 -0.77 -0.61 -0.44 -0.49 0.33 1.31 2.10 2.50 2.35 2.39 2.71 2.45 2.86 3.22 3.46 3.07 3.15 3.86 4.62 5.05 5.21 5.21 5.70 5.91 5.75 5.60 5.95 5.98 6.79 9.35 8.96 8.08 8.46 7.96 6.82 5.35 5.19 4.81 4.73 4.70 4.79 5.02
-0.45 -0.91 -1.35 -1.17 -0.95 -0.65 -0.17 0.08 1.10 1.60 1.39 1.61 1.88 2.25 2.45 2.25 2.35 2.49 2.83 3.06 2.77 2.57 2.77 3.16 3.24 3.10 3.06 4.06 3.58 5.78 6.52 7.05 4.25 5.19 5.86 5.15 3.63 3.09 3.21 3.35 3.35 3.96 4.01
MSLP
1016.67 1016.61 1016.48 1016.12 1015.99 1015.80 1015.53 1015.13 1014.86 1014.90 1014.29 1013.84 1013.44 1012.66 1012.57 1012.71 1012.69 1012.80 1012.69 1012.81 1012.67 1012.88 1013.15 1012.98 1013.02 1013.49 1013.87 1014.32 1014.80 1015.28 1015.51 1016.12 1016.53 1017.33 1017.48 1018.32 1019.34 1020.16 1021.06 1021.48 1021.68 1022.07 1022.23
1016.87 1016.60 1016.71 1016.81 1016.37 1016.01 1015.79 1015.74 1015.47 1014.84 1014.40 1013.96 1013.75 1013.06 1012.41 1012.62 1012.39 1012.35 1012.62 1012.43 1012.60 1012.18 1012.37 1012.65 1012.49 1013.01 1013.29 1013.48 1013.92 1014.50 1014.92 1015.72 1016.33 1017.41 1017.48 1017.87 1018.24 1019.15 1020.26 1021.16 1021.46 1021.65 1021.79
1017.89 1016.63 1016.74 1016.99 1016.80 1016.43 1016.24 1016.20 1015.99 1015.55 1014.70 1013.91 1013.60 1013.57 1012.75 1012.03 1012.16 1012.15 1012.11 1011.80 1012.00 1011.82 1011.71 1011.66 1011.64 1011.88 1012.32 1012.76 1012.97 1013.47 1014.03 1014.81 1015.59 1016.57 1017.56 1017.91 1017.99 1018.29 1019.39 1020.49 1021.06 1021.55 1021.54
1017.93 1016.97 1016.70 1016.97 1016.75 1016.65 1016.55 1016.29 1015.93 1015.64 1015.01 1014.25 1013.78 1013.41 1013.08 1012.16 1011.72 1011.76 1011.75 1011.50 1011.12 1011.28 1010.91 1010.69 1010.85 1010.77 1010.88 1011.51 1012.20 1012.51 1012.89 1013.75 1014.84 1015.51 1016.55 1017.34 1018.11 1018.10 1018.36 1019.51 1020.49 1020.85 1021.00
1017.57 1017.30 1016.74 1016.79 1016.73 1016.54 1016.48 1016.27 1016.01 1015.46 1014.77 1014.18 1013.83 1013.01 1012.64 1012.16 1011.61 1011.29 1011.20 1010.81 1010.70 1010.53 1010.06 1009.80 1009.72 1009.68 1009.91 1010.28 1010.74 1011.20 1012.12 1012.57 1013.58 1014.35 1015.32 1016.00 1016.62 1017.64 1017.37 1017.79 1019.26 1019.94 1020.46
1017.92 1017.49 1017.06 1016.97 1016.73 1016.48 1016.29 1016.02 1015.67 1015.15 1014.49 1013.88 1013.16 1012.74 1011.83 1011.70 1011.55 1011.10 1010.77 1010.53 1010.12 1009.60 1009.34 1008.97 1008.97 1008.87 1008.47 1009.33 1009.61 1009.87 1010.06 1010.79 1011.82 1012.61 1013.48 1013.84 1014.03 1014.99 1016.52 1016.76 1017.86 1018.92 1020.03
1017.86 1017.45 1017.15 1016.94 1016.64 1016.28 1015.96 1015.53 1014.97 1014.31 1013.61 1013.02 1012.50 1012.08 1011.37 1011.18 1010.77 1010.31 1009.92 1009.76 1009.43 1008.89 1008.45 1008.18 1007.98 1007.69 1007.64 1007.94 1008.60 1009.59 1009.41 1009.10 1009.14 1009.92 1010.97 1011.49 1012.77 1012.92 1014.67 1016.04 1016.56 1017.17 1017.47
1017.47 1017.27 1017.03 1016.73 1016.31 1015.89 1015.58 1015.18 1014.68 1014.17 1013.45 1012.76 1012.03 1011.41 1010.90 1010.32 1009.98 1009.42 1008.89 1008.37 1008.07 1007.47 1007.14 1006.95 1006.86 1006.76 1006.72 1007.08 1007.94 1008.26 1008.36 1008.70 1008.62 1008.60 1008.98 1009.76 1010.76 1011.54 1012.64 1013.99 1015.42 1016.63 1017.25
1017.38 1017.06 1016.68 1016.31 1015.87 1015.44 1014.93 1014.54 1014.04 1013.60 1012.87 1012.18 1011.57 1010.84 1010.26 1009.22 1008.78 1008.22 1007.85 1007.19 1006.74 1005.99 1005.75 1005.43 1005.33 1005.45 1005.81 1006.23 1006.78 1006.82 1007.31 1007.52 1008.22 1008.51 1008.89 1009.13 1009.68 1010.65 1011.63 1013.57 1015.34 1016.43 1016.90
1017.16 1016.74 1016.34 1016.02 1015.60 1014.99 1014.48 1013.88 1013.33 1013.02 1012.24 1011.58 1010.61 1010.00 1009.28 1008.21 1007.41 1006.87 1006.59 1006.12 1005.45 1004.74 1004.35 1003.90 1003.60 1003.96 1004.64 1005.23 1005.26 1005.72 1005.99 1006.20 1007.97 1008.65 1009.29 1008.97 1009.72 1010.15 1010.52 1011.35 1013.20 1014.51 1015.54
1017.15 1016.83 1016.49 1016.15 1015.64 1014.98 1014.23 1013.56 1012.95 1012.39 1011.74 1010.78 1009.96 1009.00 1008.30 1007.24 1005.87 1005.39 1005.04 1004.68 1003.98 1003.37 1002.79 1002.55 1002.28 1002.32 1003.10 1003.77 1003.89 1004.24 1003.95 1006.28 1006.61 1007.64 1008.30 1009.01 1009.40 1009.76 1010.52 1011.33 1011.94 1012.83 1013.93
1017.50 1017.02 1016.64 1016.38 1015.94 1015.24 1014.53 1013.54 1012.93 1012.15 1011.13 1009.89 1009.06 1007.74 1006.72 1005.71 1004.75 1003.80 1003.19 1002.82 1002.42 1002.09 1001.37 1001.09 1001.03 1001.02 1001.56 1002.26 1002.59 1002.92 1004.00 1004.79 1005.55 1006.00 1006.94 1007.80 1008.13 1008.75 1009.69 1010.68 1011.72 1012.61 1013.59
1017.70 1017.12 1016.68 1016.21 1015.62 1015.02 1014.18 1013.21 1012.39 1011.58 1010.44 1009.04 1008.15 1006.85 1005.27 1004.53 1003.49 1002.40 1001.48 1000.95 1000.73 1000.84 1000.40 1000.09 1000.13 1000.03 1000.40 1000.95 1001.24 1002.11 1003.17 1003.60 1004.07 1004.56 1005.45 1006.18 1006.56 1007.88 1009.05 1010.20 1011.67 1012.87 1013.89
1017.83 1017.17 1016.52 1015.76 1014.91 1014.36 1013.61 1012.76 1011.77 1010.95 1009.89 1008.71 1007.62 1006.33 1004.86 1003.78 1002.79 1001.81 1000.89 1000.01 999.68 999.66 999.30 999.12 999.00 999.06 999.23 999.75 1000.15 1000.98 1001.74 1002.32 1002.88 1003.20 1004.09 1005.38 1006.14 1007.40 1008.58 1009.38 1010.89 1012.61 1013.96
1017.65 1016.83 1015.98 1015.14 1014.17 1013.21 1012.55 1011.79 1010.91 1010.12 1009.41 1008.06 1007.06 1005.95 1004.66 1003.02 1002.52 1001.96 1000.60 999.78 999.10 998.85 998.87 998.40 997.82 997.64 997.85 998.55 999.16 999.75 1000.72 1001.31 1001.94 1002.65 1003.44 1004.12 1005.55 1006.78 1008.03 1009.23 1010.28 1012.02 1013.14
1017.23 1016.32 1015.44 1014.56 1013.53 1012.51 1011.39 1010.16 1009.67 1008.40 1007.35 1006.29 1005.17 1004.10 1002.97 1001.73 1001.15 1000.60 1000.07 999.48 998.53 998.01 997.41 997.34 996.72 996.49 996.76 997.02 998.00 998.68 999.60 1000.24 1001.16 1002.08 1002.63 1003.88 1005.20 1006.44 1007.55 1008.73 1009.95 1011.25 1011.96
1017.01 1015.96 1014.95 1013.93 1012.76 1011.64 1010.53 1009.39 1007.88 1006.71 1005.96 1004.93 1003.86 1002.83 1001.74 1000.61 999.84 999.12 998.47 997.88 997.21 997.00 996.03 995.75 995.74 995.73 996.04 996.46 996.84 997.59 998.52 999.93 1000.79 1001.43 1002.40 1003.63 1005.13 1006.39 1007.58 1008.12 1009.40 1010.40 1011.39
1016.24 1015.20 1014.13 1012.93 1011.79 1010.60 1009.50 1008.36 1007.30 1005.98 1004.52 1003.13 1002.69 1001.97 1000.87 999.77 998.76 997.64 996.76 996.04 995.22 994.85 994.22 994.37 994.74 995.02 995.59 996.19 996.50 997.06 998.22 999.50 1000.17 1001.20 1002.17 1003.26 1004.59 1006.06 1007.03 1007.67 1008.92 1009.71 1010.93
1015.38 1014.25 1013.16 1011.94 1010.73 1009.53 1008.37 1007.17 1006.01 1004.85 1003.65 1002.43 1001.31 1000.32 999.81 998.72 997.45 996.29 995.29 993.96 993.00 992.73 992.49 993.06 993.72 994.19 994.84 995.52 996.12 996.92 997.72 998.78 999.80 1000.73 1001.69 1002.89 1004.44 1005.86 1006.90 1007.92 1008.80 1009.84 1010.66
1014.30 1013.32 1012.19 1010.93 1009.62 1008.39 1007.22 1005.98 1004.69 1003.58 1002.51 1001.56 1000.60 999.54 998.51 997.76 996.42 994.89 994.21 993.50 992.83 992.43 992.12 992.40 993.04 993.64 994.29 994.97 996.08 996.99 997.83 998.79 999.80 1000.76 1001.89 1002.99 1004.36 1005.67 1006.82 1007.90 1008.79 1009.97 1010.87
1013.67 1012.48 1011.49 1010.32 1009.10 1007.89 1006.51 1005.09 1003.63 1002.11 1001.22 1000.60 999.79 998.77 997.76 996.49 995.18 994.48 993.69 992.77 991.70 991.28 991.62 992.24 992.97 993.66 994.38 995.05 996.03 996.99 997.94 999.03 999.98 1001.03 1002.38 1003.45 1004.28 1005.71 1006.95 1007.77 1008.73 1009.85 1010.78
1013.35 1012.32 1011.21 1010.09 1008.79 1007.44 1006.19 1004.90 1003.58 1002.37 1001.20 1000.05 999.06 998.05 996.95 996.33 995.40 994.71 994.14 993.31 992.17 992.04 992.27 992.88 993.55 993.97 994.50 995.22 996.17 997.24 998.39 999.46 1000.62 1001.63 1002.53 1003.78 1004.81 1006.27 1007.10 1008.06 1008.89 1009.92 1010.65
1013.20 1012.24 1011.12 1009.93 1008.81 1007.59 1006.33 1005.21 1004.01 1002.90 1001.86 1000.86 999.99 999.18 998.47 997.84 997.20 996.57 995.97 995.39 994.78 994.57 994.56 994.64 995.00 995.41 996.00 996.59 997.29 998.04 999.01 1000.04 1000.88 1001.75 1002.84 1003.96 1005.18 1006.27 1007.23 1008.23 1009.05 1009.79 1010.51
1013.21 1012.35 1011.34 1010.26 1009.16 1008.07 1007.00 1005.85 1004.76 1003.74 1002.78 1001.88 1001.05 1000.38 999.78 999.10 998.52 998.07 997.60 997.20 996.89 996.80 996.81 996.89 997.06 997.26 997.62 998.08 998.69 999.26 999.93 1000.60 1001.49 1002.41 1003.18 1004.08 1005.25 1006.37 1007.39 1008.31 1009.10 1009.77 1010.39
1013.32 1012.52 1011.72 1010.84 1009.89 1008.87 1007.79 1006.73 1005.68 1004.74 1003.81 1003.03 1002.35 1001.71 1001.12 1000.46 999.93 999.50 999.17 998.88 998.61 998.45 998.50 998.60 998.88 999.10 999.36 999.58 1000.01 1000.41 1000.80 1001.28 1002.13 1002.84 1003.83 1004.64 1005.62 1006.61 1007.57 1008.52 1009.24 1009.84 1010.10
1013.48 1012.90 1012.24 1011.48 1010.56 1009.66 1008.70 1007.69 1006.68 1005.83 1005.02 1004.26 1003.64 1003.08 1002.51 1001.94 1001.47 1001.03 1000.67 1000.33 1000.16 1000.23 1000.20 1000.35 1000.53 1000.58 1000.68 1000.91 1001.32 1001.72 1001.98 1002.54 1003.32 1003.93 1004.56 1005.33 1006.21 1007.14 1007.93 1008.61 1009.15 1009.48 1009.90
Wind_Speed
11 11 11 10 11 10 10 11 11 11 10 8 8 6 6 8 9 9 11 10 12 12 12 13 14 13 9 8 5 5 4 3 2 2 8 10 13 10 8 6 5 6 7
10 10 9 10 10 10 11 11 11 11 11 10 10 7 5 8 9 10 12 10 14 13 14 13 14 9 12 11 8 9 7 5 3 5 5 7 10 12 9 8 5 5 5
10 8 7 7 9 9 10 10 10 10 10 10 10 11 8 6 8 10 12 12 14 15 14 15 15 14 14 12 11 11 8 5 4 4 3 4 4 9 8 6 5 6 5
10 8 7 7 8 7 8 9 10 10 10 9 8 9 11 8 7 9 11 12 13 14 15 16 15 18 18 17 14 14 11 10 7 6 4 7 6 7 7 8 6 6 6
12 11 10 10 10 9 8 8 9 8 8 8 9 9 9 9 7 9 11 12 13 15 16 16 18 18 22 21 14 15 14 12 10 10 7 6 8 7 13 9 7 6 7
11 12 12 10 10 10 9 10 10 11 10 10 10 10 9 7 14 17 15 13 14 14 16 17 17 18 21 25 28 27 22 19 17 13 12 13 15 11 10 10 8 6 6
9 10 10 10 11 11 10 12 12 13 13 12 13 12 11 11 18 20 19 11 13 16 17 15 15 13 16 17 26 27 27 31 29 20 19 15 13 16 14 13 12 10 5
11 11 11 11 12 12 12 13 13 12 13 13 14 14 14 13 22 22 20 14 14 16 18 17 17 17 16 17 17 19 21 19 22 15 19 15 12 14 15 13 13 8 5
12 13 13 13 14 14 14 14 15 13 14 15 15 16 16 17 23 24 20 13 15 17 17 17 18 18 22 25 19 20 20 19 18 23 17 16 21 27 19 11 10 10 4
13 14 14 15 15 16 16 17 16 15 16 14 17 18 20 20 26 28 23 11 15 13 14 16 22 23 25 26 21 18 20 19 14 13 10 14 18 20 27 17 14 13 5
14 15 15 15 16 17 18 17 16 16 17 19 19 19 20 21 22 30 29 15 13 13 13 13 12 25 28 29 29 20 22 15 20 15 13 11 11 13 11 10 12 11 8
16 17 17 16 14 14 18 17 18 17 19 20 19 18 15 19 26 28 31 31 26 15 15 12 12 22 26 29 26 31 30 24 13 14 14 14 13 13 12 11 11 8 5
17 18 17 17 16 15 17 17 15 16 16 16 15 16 16 14 14 29 31 31 29 20 14 19 25 23 26 26 30 29 27 15 13 15 15 14 13 12 13 13 11 10 7
17 17 16 16 17 16 13 13 13 13 14 14 15 16 16 14 14 13 13 12 17 17 21 18 19 20 21 19 16 21 15 15 14 14 14 12 11 12 11 12 11 10 8
16 16 16 14 16 15 14 13 13 15 16 15 15 16 16 17 14 24 24 12 9 12 12 11 11 12 11 11 11 13 14 13 13 13 13 12 11 13 11 11 10 10 6
16 14 13 14 13 14 14 14 23 31 33 34 36 29 17 33 38 38 36 37 37 34 11 11 11 11 13 13 13 13 13 14 12 11 10 11 11 12 12 11 11 10 10
16 16 13 15 14 15 14 14 16 17 31 33 34 34 35 34 37 36 36 36 35 30 16 12 11 11 11 11 11 12 13 9 12 10 11 11 11 10 14 12 11 11 8
16 21 15 13 14 14 14 15 14 15 16 16 21 25 28 32 32 33 31 29 17 20 14 11 10 10 10 10 10 11 9 11 11 11 12 12 11 12 12 11 11 11 10
14 13 13 13 14 16 15 15 14 15 15 15 14 19 18 27 28 28 31 14 8 8 10 10 8 9 9 9 7 9 12 12 13 12 11 11 11 11 10 10 10 12 12
13 18 17 13 13 14 13 13 13 13 13 12 12 13 12 13 11 9 8 8 10 9 8 6 7 7 8 9 10 9 9 11 11 10 10 11 11 10 10 11 10 10 7
11 13 16 13 12 12 13 13 13 13 10 10 11 13 23 14 9 8 9 9 11 7 4 5 5 6 8 9 10 10 10 9 10 10 10 10 11 10 10 10 10 9 8
11 11 11 12 12 12 12 12 11 11 11 10 10 10 20 8 7 7 6 7 7 7 7 7 7 7 7 9 10 10 10 10 11 11 11 10 10 10 9 9 9 8 7
10 12 11 11 11 15 12 11 10 10 11 10 10 9 9 8 8 8 8 8 9 9 8 7 6 7 7 7 7 9 10 10 10 11 12 11 10 9 9 9 8 8 7
10 11 11 11 10 11 11 11 10 12 11 10 10 9 9 8 8 8 8 8 8 8 8 8 8 9 9 8 7 7 8 9 9 11 14 12 10 10 8 8 8 8 7
9 10 10 10 10 11 11 11 11 11 10 10 10 9 9 9 9 9 8 8 8 9 10 9 8 10 12 13 11 11 14 16 12 13 9 11 12 11 8 7 7 6 6
8 9 9 9 9 10 9 10 10 10 10 9 9 9 10 9 9 9 9 10 9 10 11 9 12 14 14 12 13 13 15 16 13 13 9 9 9 7 6 6 7 5 5
Wind_Direction
17 12 7 12 11 8 7 5 358 341 334 310 298 279 261 250 237 234 234 232 226 226 226 219 213 206 201 193 180 195 204 218 141 29 169 164 175 177 166 193 189 191 206
10 12 8 0 1 3 2 356 349 348 340 334 319 293 266 264 256 238 236 230 241 228 224 223 220 206 210 199 190 193 187 208 143 163 176 163 182 181 181 188 194 209 223
347 3 360 360 354 354 349 343 339 337 337 340 332 315 301 272 266 257 248 243 240 239 232 231 219 208 208 205 200 193 186 167 184 146 164 174 170 171 177 180 192 197 215
334 346 343 341 340 344 333 329 325 324 324 329 327 313 302 292 278 266 258 250 246 245 237 233 225 222 212 206 204 202 184 175 179 169 148 173 177 178 169 182 196 206 207
333 330 331 326 325 321 312 313 307 300 302 305 305 305 301 298 291 285 269 260 248 250 245 236 232 226 224 217 204 202 194 189 185 185 180 171 181 166 192 171 193 180 212
317 310 315 317 315 311 308 308 306 300 294 298 298 294 295 285 278 274 269 269 264 253 251 245 238 231 227 224 223 209 199 189 195 194 192 203 192 182 179 175 172 155 207
294 293 295 300 297 299 302 306 306 308 304 301 299 293 287 282 282 279 268 254 254 257 252 250 247 237 226 223 223 225 215 209 200 192 201 201 191 180 166 175 184 187 179
291 291 290 285 287 287 293 294 299 300 299 296 292 289 285 281 282 281 275 262 255 253 252 249 246 246 232 219 216 215 221 216 217 206 209 197 194 172 176 179 180 162 98
294 291 290 288 287 284 281 283 287 290 290 290 286 284 280 276 277 279 277 265 258 254 251 246 245 247 241 220 214 218 215 224 221 218 208 185 171 169 163 142 166 167 172
300 295 295 294 290 285 283 284 284 283 282 283 283 281 281 280 276 273 270 260 258 257 253 248 237 240 241 230 216 214 219 213 200 203 201 189 185 176 171 174 168 178 152
310 306 303 299 296 294 292 288 287 285 283 279 278 279 278 273 274 270 265 257 249 252 249 248 241 235 236 233 218 216 219 204 196 193 184 184 180 175 177 176 172 173 158
314 308 307 305 300 296 293 291 287 284 279 276 276 276 271 272 270 270 264 256 253 249 248 247 245 237 230 229 225 218 220 210 192 188 186 189 182 178 174 167 161 151 148
310 306 305 303 299 294 291 290 288 283 278 277 275 276 278 275 272 274 270 265 257 255 253 250 248 241 229 229 224 222 217 213 191 190 194 197 187 173 160 147 142 133 134
301 300 301 297 296 291 285 283 283 283 282 280 278 275 276 278 275 276 273 264 260 261 261 259 251 240 213 212 213 224 215 210 197 194 193 190 172 163 159 150 146 148 150
300 299 297 292 291 292 284 282 278 273 270 272 268 269 273 271 272 281 289 289 265 245 261 261 243 227 198 202 210 209 211 202 194 192 194 172 164 159 156 153 148 152 169
301 298 297 297 294 291 290 286 278 283 284 283 282 277 271 272 275 274 271 271 275 276 249 251 250 219 205 196 201 193 206 199 189 182 171 162 163 163 154 150 153 166 163
294 294 293 291 290 291 289 289 291 287 286 285 285 285 283 279 275 271 269 268 268 259 251 237 246 219 208 207 199 193 197 178 169 163 155 157 158 161 160 159 160 159 157
291 290 290 289 287 286 286 286 286 288 291 289 284 284 283 282 279 276 279 278 250 252 242 230 236 209 205 204 198 190 168 159 162 158 157 159 161 164 164 160 161 158 154
296 291 290 290 291 290 289 286 284 283 283 285 290 288 283 284 285 276 266 266 270 263 212 217 230 202 191 190 170 155 158 161 165 163 157 156 156 159 154 153 146 145 141
302 298 294 296 297 297 295 292 289 283 282 284 289 288 294 292 290 275 281 274 264 254 222 205 191 184 179 149 146 153 153 158 155 153 149 146 144 146 144 142 139 139 144
304 303 308 301 302 301 298 298 299 293 280 283 282 283 286 286 297 304 294 274 271 198 173 155 144 128 137 146 146 153 152 149 146 140 142 141 139 140 140 138 139 144 150
312 307 310 309 308 310 314 312 320 327 326 301 299 304 333 345 336 342 359 353 29 75 105 127 138 143 145 143 145 141 142 138 138 138 133 131 127 131 133 135 137 139 144
314 318 318 317 319 322 322 327 331 336 338 340 342 348 354 357 0 5 9 7 21 30 35 52 77 87 87 98 111 129 138 143 144 138 135 134 132 133 134 137 142 146 158
325 324 324 324 328 330 333 335 339 345 349 352 354 358 360 6 12 17 21 24 35 41 45 52 60 76 86 91 101 112 119 124 129 134 134 132 131 133 135 139 147 156 161
333 334 332 332 333 336 337 341 347 351 357 2 3 5 7 12 20 24 26 33 42 50 54 60 66 72 75 85 91 103 120 116 116 119 118 119 124 130 132 137 149 159 165
339 340 340 336 338 341 345 347 352 357 3 8 12 13 15 21 25 28 30 39 47 51 56 56 63 70 73 72 85 97 100 101 97 96 105 112 120 126 135 144 158 163 176